Time,TemperatureF,DewpointF,PressureIn,WindDirection,WindDirectionDegrees,WindSpeedMPH,WindSpeedGustMPH,Humidity,HourlyPrecipIn,Conditions,Clouds,dailyrainin,SoftwareType,DateUTC
2013-06-23 00:00:00,71.6,70.5,29.91,West,270,0.0,1.0,96,0.00,,,3.16,HomebrewedOnLinux,2013-06-23 04:00:00,
2013-06-23 00:05:00,71.4,70.5,29.91,West,270,0.0,1.0,97,0.00,,,0.00,HomebrewedOnLinux,2013-06-23 04:05:00,
2013-06-23 00:10:00,71.4,70.5,29.91,West,270,0.0,0.0,97,0.00,,,0.00,HomebrewedOnLinux,2013-06-23 04:10:00,
2013-06-23 00:15:00,71.2,70.3,29.91,West,270,0.0,0.0,97,0.00,,,0.00,HomebrewedOnLinux,2013-06-23 04:15:00,
2013-06-23 00:20:00,71.2,70.3,29.91,West,270,0.0,0.0,97,0.00,,,0.00,HomebrewedOnLinux,2013-06-23 04:20:00,
2013-06-23 00:25:00,71.2,70.0,29.91,West,270,0.0,0.0,96,0.00,,,0.00,HomebrewedOnLinux,2013-06-23 04:25:00,
2013-06-23 00:30:00,71.1,69.9,29.91,West,270,0.0,0.0,96,0.00,,,0.00,HomebrewedOnLinux,2013-06-23 04:30:00,
2013-06-23 00:35:00,71.1,69.9,29.91,West,270,0.0,0.0,96,0.00,,,0.00,HomebrewedOnLinux,2013-06-23 04:35:00,
2013-06-23 00:40:00,70.9,70.0,29.91,West,270,0.0,0.0,97,0.00,,,0.00,HomebrewedOnLinux,2013-06-23 04:40:00,
2013-06-23 00:45:00,70.9,70.0,29.91,West,270,0.0,0.0,97,0.00,,,0.00,HomebrewedOnLinux,2013-06-23 04:45:00,
2013-06-23 00:50:00,70.9,70.0,29.91,West,270,0.0,1.0,97,0.00,,,0.00,HomebrewedOnLinux,2013-06-23 04:50:00,
2013-06-23 00:55:00,70.9,70.0,29.91,West,270,0.0,0.0,97,0.00,,,0.00,HomebrewedOnLinux,2013-06-23 04:55:00,
2013-06-23 01:00:00,70.7,69.8,29.91,North,-999,-999.0,-999.0,97,0.00,,,0.00,HomebrewedOnLinux,2013-06-23 05:00:00,
2013-06-23 01:05:00,70.7,69.8,29.91,North,-999,-999.0,-999.0,97,0.00,,,0.00,HomebrewedOnLinux,2013-06-23 05:05:00,
2013-06-23 01:10:00,70.7,69.8,29.91,West,270,0.0,0.0,97,0.00,,,0.00,HomebrewedOnLinux,2013-06-23 05:10:00,
2013-06-23 01:20:00,70.5,69.6,29.91,West,270,0.0,0.0,97,0.00,,,0.00,HomebrewedOnLinux,2013-06-23 05:20:00,
2013-06-23 01:25:00,70.5,69.6,29.91,North,-999,-999.0,-999.0,97,0.00,,,0.00,HomebrewedOnLinux,2013-06-23 05:25:00,
2013-06-23 01:30:00,70.5,69.6,29.91,NE,56,1.0,1.0,97,0.00,,,0.00,HomebrewedOnLinux,2013-06-23 05:30:00,
2013-06-23 01:35:00,70.3,69.4,29.91,NE,45,1.0,1.0,97,0.00,,,0.00,HomebrewedOnLinux,2013-06-23 05:35:00,
2013-06-23 01:45:00,70.3,69.4,29.91,NE,45,0.0,0.0,97,0.00,,,0.00,HomebrewedOnLinux,2013-06-23 05:45:00,
2013-06-23 01:50:00,70.3,69.4,29.91,NE,45,0.0,0.0,97,0.00,,,0.00,HomebrewedOnLinux,2013-06-23 05:50:00,
2013-06-23 01:55:00,70.3,69.4,29.91,NE,45,0.0,0.0,97,0.00,,,0.00,HomebrewedOnLinux,2013-06-23 05:55:00,
2013-06-23 02:00:00,70.3,69.4,29.91,NE,45,0.0,0.0,97,0.00,,,0.00,HomebrewedOnLinux,2013-06-23 06:00:00,
2013-06-23 02:10:00,70.3,69.4,29.91,NE,45,0.0,0.0,97,0.00,,,0.00,HomebrewedOnLinux,2013-06-23 06:10:00,
2013-06-23 02:15:00,70.3,69.4,29.91,NE,45,0.0,0.0,97,0.00,,,0.00,HomebrewedOnLinux,2013-06-23 06:15:00,
2013-06-23 02:20:00,70.3,69.4,29.91,NE,45,0.0,0.0,97,0.00,,,0.00,HomebrewedOnLinux,2013-06-23 06:20:00,
2013-06-23 02:25:00,70.3,69.5,29.91,NE,45,0.0,0.0,97,0.00,,,0.00,HomebrewedOnLinux,2013-06-23 06:25:00,
2013-06-23 02:30:00,70.3,69.7,29.91,North,-999,-999.0,-999.0,98,0.00,,,0.00,HomebrewedOnLinux,2013-06-23 06:30:00,
2013-06-23 02:35:00,70.3,69.7,29.91,North,-999,-999.0,-999.0,98,0.00,,,0.00,HomebrewedOnLinux,2013-06-23 06:35:00,
2013-06-23 02:40:00,70.3,69.7,29.91,North,-999,-999.0,-999.0,98,0.00,,,0.00,HomebrewedOnLinux,2013-06-23 06:40:00,
2013-06-23 02:45:00,70.3,69.7,29.91,WNW,293,0.0,0.0,98,0.00,,,0.00,HomebrewedOnLinux,2013-06-23 06:45:00,
2013-06-23 02:55:00,70.2,69.6,29.91,WNW,293,0.0,0.0,98,0.00,,,0.00,HomebrewedOnLinux,2013-06-23 06:55:00,
2013-06-23 03:00:00,70.2,69.6,29.91,WNW,293,0.0,0.0,98,0.00,,,0.00,HomebrewedOnLinux,2013-06-23 07:00:00,
2013-06-23 03:05:00,70.2,69.6,29.91,WNW,293,0.0,0.0,98,0.00,,,0.00,HomebrewedOnLinux,2013-06-23 07:05:00,
2013-06-23 03:10:00,70.2,69.6,29.91,WNW,293,0.0,0.0,98,0.00,,,0.00,HomebrewedOnLinux,2013-06-23 07:10:00,
2013-06-23 03:20:00,70.2,69.6,29.91,WNW,293,0.0,0.0,98,0.00,,,0.00,HomebrewedOnLinux,2013-06-23 07:20:00,
2013-06-23 03:30:00,70.2,69.6,29.91,WNW,293,0.0,0.0,98,0.00,,,0.00,HomebrewedOnLinux,2013-06-23 07:30:00,
2013-06-23 03:35:00,70.2,69.6,29.91,WNW,293,0.0,0.0,98,0.00,,,0.00,HomebrewedOnLinux,2013-06-23 07:35:00,
2013-06-23 03:40:00,70.0,69.4,29.91,WNW,293,0.0,0.0,98,0.00,,,0.00,HomebrewedOnLinux,2013-06-23 07:40:00,
2013-06-23 03:45:00,70.0,69.4,29.91,WNW,293,0.0,0.0,98,0.00,,,0.00,HomebrewedOnLinux,2013-06-23 07:45:00,
2013-06-23 03:50:00,70.0,69.4,29.91,WNW,293,0.0,0.0,98,0.00,,,0.00,HomebrewedOnLinux,2013-06-23 07:50:00,
2013-06-23 04:00:00,70.0,69.4,29.88,WNW,293,0.0,0.0,98,0.00,,,0.00,HomebrewedOnLinux,2013-06-23 08:00:00,
2013-06-23 04:05:00,70.0,69.4,29.88,WNW,293,0.0,0.0,98,0.00,,,0.00,HomebrewedOnLinux,2013-06-23 08:05:00,
2013-06-23 04:10:00,69.8,69.2,29.91,WNW,293,0.0,0.0,98,0.00,,,0.00,HomebrewedOnLinux,2013-06-23 08:10:00,
2013-06-23 04:15:00,69.8,69.2,29.91,WNW,293,0.0,0.0,98,0.00,,,0.00,HomebrewedOnLinux,2013-06-23 08:15:00,
2013-06-23 04:20:00,69.8,69.2,29.91,WNW,293,0.0,0.0,98,0.00,,,0.00,HomebrewedOnLinux,2013-06-23 08:20:00,
2013-06-23 04:30:00,69.8,69.2,29.91,WNW,293,0.0,0.0,98,0.00,,,0.00,HomebrewedOnLinux,2013-06-23 08:30:00,
2013-06-23 04:35:00,69.8,69.2,29.91,WNW,293,0.0,0.0,98,0.00,,,0.00,HomebrewedOnLinux,2013-06-23 08:35:00,
2013-06-23 04:40:00,69.8,69.2,29.91,WNW,293,0.0,0.0,98,0.00,,,0.00,HomebrewedOnLinux,2013-06-23 08:40:00,
2013-06-23 04:45:00,69.8,69.2,29.91,WNW,293,0.0,0.0,98,0.00,,,0.00,HomebrewedOnLinux,2013-06-23 08:45:00,
2013-06-23 04:50:00,69.8,69.2,29.91,WNW,293,0.0,0.0,98,0.00,,,0.00,HomebrewedOnLinux,2013-06-23 08:50:00,
2013-06-23 04:55:00,69.8,69.2,29.91,WNW,293,0.0,0.0,98,0.00,,,0.00,HomebrewedOnLinux,2013-06-23 08:55:00,
2013-06-23 05:05:00,69.8,69.2,29.91,WNW,293,0.0,0.0,98,0.00,,,0.00,HomebrewedOnLinux,2013-06-23 09:05:00,
2013-06-23 05:10:00,69.8,69.2,29.91,NNW,345,0.0,0.0,98,0.00,,,0.00,HomebrewedOnLinux,2013-06-23 09:10:00,
2013-06-23 05:15:00,69.8,69.2,29.91,NNE,22,0.0,0.0,98,0.00,,,0.00,HomebrewedOnLinux,2013-06-23 09:15:00,
2013-06-23 05:20:00,69.8,69.2,29.91,NNE,22,0.0,0.0,98,0.00,,,0.00,HomebrewedOnLinux,2013-06-23 09:20:00,
2013-06-23 05:25:00,69.8,69.2,29.91,NNE,22,0.0,0.0,98,0.00,,,0.00,HomebrewedOnLinux,2013-06-23 09:25:00,
2013-06-23 05:30:00,69.6,69.0,29.91,NNE,22,0.0,0.0,98,0.00,,,0.00,HomebrewedOnLinux,2013-06-23 09:30:00,
2013-06-23 05:40:00,69.8,69.2,29.88,NNE,22,0.0,0.0,98,0.00,,,0.00,HomebrewedOnLinux,2013-06-23 09:40:00,
2013-06-23 05:45:00,69.8,69.2,29.88,NNE,22,0.0,0.0,98,0.00,,,0.00,HomebrewedOnLinux,2013-06-23 09:45:00,
2013-06-23 05:50:00,69.8,69.2,29.88,NW,315,0.0,0.0,98,0.00,,,0.00,HomebrewedOnLinux,2013-06-23 09:50:00,
2013-06-23 05:55:00,69.8,69.2,29.91,NW,315,0.0,0.0,98,0.00,,,0.00,HomebrewedOnLinux,2013-06-23 09:55:00,
2013-06-23 06:00:00,69.8,69.2,29.91,NW,315,0.0,0.0,98,0.00,,,0.00,HomebrewedOnLinux,2013-06-23 10:00:00,
2013-06-23 06:05:00,69.6,69.0,29.91,NW,315,0.0,0.0,98,0.00,,,0.00,HomebrewedOnLinux,2013-06-23 10:05:00,
2013-06-23 06:15:00,69.6,69.0,29.91,North,-999,-999.0,-999.0,98,0.00,,,0.00,HomebrewedOnLinux,2013-06-23 10:15:00,
2013-06-23 06:20:00,69.6,69.0,29.91,NW,315,0.0,0.0,98,0.00,,,0.00,HomebrewedOnLinux,2013-06-23 10:20:00,
2013-06-23 06:25:00,69.6,69.0,29.91,NW,315,0.0,0.0,98,0.00,,,0.00,HomebrewedOnLinux,2013-06-23 10:25:00,
2013-06-23 06:30:00,69.6,69.0,29.91,North,-999,-999.0,-999.0,98,0.00,,,0.00,HomebrewedOnLinux,2013-06-23 10:30:00,
2013-06-23 06:35:00,69.6,69.0,29.91,North,-999,-999.0,-999.0,98,0.00,,,0.00,HomebrewedOnLinux,2013-06-23 10:35:00,
2013-06-23 06:40:00,69.6,69.0,29.91,North,-999,-999.0,-999.0,98,0.00,,,0.00,HomebrewedOnLinux,2013-06-23 10:40:00,
2013-06-23 06:50:00,69.6,69.0,29.91,North,-999,-999.0,-999.0,98,0.00,,,0.00,HomebrewedOnLinux,2013-06-23 10:50:00,
2013-06-23 06:55:00,69.8,69.2,29.91,NW,315,0.0,0.0,98,0.00,,,0.00,HomebrewedOnLinux,2013-06-23 10:55:00,
2013-06-23 07:00:00,69.8,69.2,29.91,North,-999,-999.0,-999.0,98,0.00,,,0.00,HomebrewedOnLinux,2013-06-23 11:00:00,
2013-06-23 07:05:00,69.8,69.2,29.91,NW,315,0.0,0.0,98,0.00,,,0.00,HomebrewedOnLinux,2013-06-23 11:05:00,
2013-06-23 07:10:00,69.8,69.2,29.91,NW,315,0.0,0.0,98,0.00,,,0.00,HomebrewedOnLinux,2013-06-23 11:10:00,
2013-06-23 07:15:00,69.8,69.2,29.91,NW,315,0.0,0.0,98,0.00,,,0.00,HomebrewedOnLinux,2013-06-23 11:15:00,
2013-06-23 07:25:00,70.0,69.4,29.91,NW,315,0.0,0.0,98,0.00,,,0.00,HomebrewedOnLinux,2013-06-23 11:25:00,
2013-06-23 07:30:00,70.2,69.6,29.91,NW,315,0.0,0.0,98,0.00,,,0.00,HomebrewedOnLinux,2013-06-23 11:30:00,
2013-06-23 07:35:00,70.2,69.6,29.91,NW,315,0.0,0.0,98,0.00,,,0.00,HomebrewedOnLinux,2013-06-23 11:35:00,
2013-06-23 07:45:00,70.5,69.9,29.94,NW,315,0.0,0.0,98,0.00,,,0.00,HomebrewedOnLinux,2013-06-23 11:45:00,
2013-06-23 07:50:00,70.5,69.9,29.94,NW,315,0.0,0.0,98,0.00,,,0.00,HomebrewedOnLinux,2013-06-23 11:50:00,
2013-06-23 07:55:00,70.7,70.1,29.94,NW,315,0.0,0.0,98,0.00,,,0.00,HomebrewedOnLinux,2013-06-23 11:55:00,
2013-06-23 08:00:00,70.9,70.3,29.94,NW,315,0.0,0.0,98,0.00,,,0.00,HomebrewedOnLinux,2013-06-23 12:00:00,
2013-06-23 08:05:00,71.1,70.5,29.94,NW,315,0.0,0.0,98,0.00,,,0.00,HomebrewedOnLinux,2013-06-23 12:05:00,
2013-06-23 08:10:00,71.2,70.6,29.94,NW,315,0.0,0.0,98,0.00,,,0.00,HomebrewedOnLinux,2013-06-23 12:10:00,
2013-06-23 08:15:00,71.4,70.8,29.94,NW,315,0.0,0.0,98,0.00,,,0.00,HomebrewedOnLinux,2013-06-23 12:15:00,
2013-06-23 08:25:00,71.8,71.2,29.94,NW,315,0.0,0.0,98,0.00,,,0.00,HomebrewedOnLinux,2013-06-23 12:25:00,
2013-06-23 08:35:00,72.1,71.5,29.94,NW,315,0.0,0.0,98,0.00,,,0.00,HomebrewedOnLinux,2013-06-23 12:35:00,
2013-06-23 08:40:00,72.3,71.7,29.94,NW,315,0.0,0.0,98,0.00,,,0.00,HomebrewedOnLinux,2013-06-23 12:40:00,
2013-06-23 08:45:00,72.5,71.9,29.94,NW,315,0.0,0.0,98,0.00,,,0.00,HomebrewedOnLinux,2013-06-23 12:45:00,
2013-06-23 08:50:00,72.7,72.1,29.94,NNW,332,0.0,0.0,98,0.00,,,0.00,HomebrewedOnLinux,2013-06-23 12:50:00,
2013-06-23 08:55:00,72.9,72.3,29.94,NNW,337,1.0,1.0,98,0.00,,,0.00,HomebrewedOnLinux,2013-06-23 12:55:00,
2013-06-23 09:00:00,73.0,72.4,29.94,North,-999,-999.0,-999.0,98,0.00,,,0.00,HomebrewedOnLinux,2013-06-23 13:00:00,
2013-06-23 09:10:00,73.0,72.4,29.94,North,-999,-999.0,-999.0,98,0.00,,,0.00,HomebrewedOnLinux,2013-06-23 13:10:00,
2013-06-23 09:15:00,73.4,72.8,29.94,North,4,0.0,0.0,98,0.00,,,0.00,HomebrewedOnLinux,2013-06-23 13:15:00,
2013-06-23 09:25:00,73.6,73.0,29.94,North,0,0.0,0.0,98,0.00,,,0.00,HomebrewedOnLinux,2013-06-23 13:25:00,
2013-06-23 09:30:00,73.8,73.2,29.94,North,0,0.0,0.0,98,0.00,,,0.00,HomebrewedOnLinux,2013-06-23 13:30:00,
2013-06-23 09:40:00,74.1,73.5,29.97,North,0,0.0,0.0,98,0.00,,,0.00,HomebrewedOnLinux,2013-06-23 13:40:00,
2013-06-23 09:45:00,74.5,73.9,29.97,North,11,0.0,1.0,98,0.00,,,0.00,HomebrewedOnLinux,2013-06-23 13:45:00,
2013-06-23 09:50:00,74.8,74.2,29.97,NE,45,1.0,2.0,98,0.00,,,0.00,HomebrewedOnLinux,2013-06-23 13:50:00,
2013-06-23 09:55:00,75.2,74.6,29.97,North,3,0.0,0.0,98,0.00,,,0.00,HomebrewedOnLinux,2013-06-23 13:55:00,
2013-06-23 10:00:00,75.6,75.0,29.97,SSW,202,0.0,1.0,98,0.00,,,0.00,HomebrewedOnLinux,2013-06-23 14:00:00,
2013-06-23 10:05:00,75.7,75.1,29.97,North,-999,-999.0,-999.0,98,0.00,,,0.00,HomebrewedOnLinux,2013-06-23 14:05:00,
2013-06-23 10:10:00,75.9,75.3,29.97,North,-999,-999.0,-999.0,98,0.00,,,0.00,HomebrewedOnLinux,2013-06-23 14:10:00,
2013-06-23 10:15:00,75.9,75.3,29.97,North,-999,-999.0,-999.0,98,0.00,,,0.00,HomebrewedOnLinux,2013-06-23 14:15:00,
2013-06-23 10:20:00,76.1,75.5,29.97,WSW,252,1.0,2.0,98,0.00,,,0.00,HomebrewedOnLinux,2013-06-23 14:20:00,
2013-06-23 10:25:00,76.5,75.6,29.94,SSW,211,1.0,2.0,97,0.00,,,0.00,HomebrewedOnLinux,2013-06-23 14:25:00,
2013-06-23 10:30:00,76.6,75.7,29.94,WSW,239,1.0,2.0,97,0.00,,,0.00,HomebrewedOnLinux,2013-06-23 14:30:00,
2013-06-23 10:35:00,77.0,75.8,29.94,North,-999,-999.0,-999.0,96,0.00,,,0.00,HomebrewedOnLinux,2013-06-23 14:35:00,
2013-06-23 10:40:00,77.5,76.1,29.94,West,270,1.0,1.0,95,0.00,,,0.00,HomebrewedOnLinux,2013-06-23 14:40:00,
2013-06-23 10:50:00,77.9,76.3,29.94,West,277,3.0,4.0,95,0.00,,,0.00,HomebrewedOnLinux,2013-06-23 14:50:00,
2013-06-23 10:55:00,78.3,76.3,29.94,North,-999,-999.0,-999.0,94,0.00,,,0.00,HomebrewedOnLinux,2013-06-23 14:55:00,
2013-06-23 11:00:00,77.9,76.0,29.94,West,270,0.0,0.0,94,0.00,,,0.00,HomebrewedOnLinux,2013-06-23 15:00:00,
2013-06-23 11:10:00,77.5,76.0,29.94,North,0,0.0,0.0,95,0.00,,,0.00,HomebrewedOnLinux,2013-06-23 15:10:00,
2013-06-23 11:20:00,77.2,75.3,29.94,North,-999,-999.0,-999.0,94,0.00,,,0.00,HomebrewedOnLinux,2013-06-23 15:20:00,
2013-06-23 11:25:00,77.4,75.8,29.97,North,-999,-999.0,-999.0,95,0.00,,,0.00,HomebrewedOnLinux,2013-06-23 15:25:00,
2013-06-23 11:30:00,77.2,75.6,29.97,North,-999,-999.0,-999.0,95,0.00,,,0.00,HomebrewedOnLinux,2013-06-23 15:30:00,
2013-06-23 11:35:00,77.2,75.6,29.97,SW,225,0.0,0.0,95,0.00,,,0.00,HomebrewedOnLinux,2013-06-23 15:35:00,
2013-06-23 11:40:00,77.4,75.8,29.97,North,-999,-999.0,-999.0,95,0.00,,,0.00,HomebrewedOnLinux,2013-06-23 15:40:00,
2013-06-23 11:45:00,77.5,75.8,29.97,North,-999,-999.0,-999.0,94,0.00,,,0.00,HomebrewedOnLinux,2013-06-23 15:45:00,
2013-06-23 11:55:00,78.3,75.7,29.94,WNW,296,1.0,2.0,92,0.00,,,0.00,HomebrewedOnLinux,2013-06-23 15:55:00,
2013-06-23 12:00:00,78.4,76.1,29.94,SW,221,1.0,2.0,93,0.00,,,0.00,HomebrewedOnLinux,2013-06-23 16:00:00,
2013-06-23 12:10:00,78.8,75.1,29.97,North,-999,-999.0,-999.0,88,0.00,,,0.00,HomebrewedOnLinux,2013-06-23 16:10:00,
2013-06-23 12:20:00,78.6,75.2,29.97,NNW,341,0.0,0.0,89,0.00,,,0.00,HomebrewedOnLinux,2013-06-23 16:20:00,
2013-06-23 12:25:00,78.8,75.3,29.94,NE,46,0.0,2.0,89,0.00,,,0.00,HomebrewedOnLinux,2013-06-23 16:25:00,
2013-06-23 12:30:00,79.2,75.6,29.94,SW,229,0.0,0.0,89,0.00,,,0.00,HomebrewedOnLinux,2013-06-23 16:30:00,
2013-06-23 12:40:00,80.1,76.0,29.94,SSW,208,2.0,3.0,88,0.00,,,0.00,HomebrewedOnLinux,2013-06-23 16:40:00,
2013-06-23 12:45:00,80.1,76.0,29.94,South,181,1.0,2.0,88,0.00,,,0.00,HomebrewedOnLinux,2013-06-23 16:45:00,
2013-06-23 12:50:00,79.5,76.0,29.94,SSW,208,1.0,3.0,89,0.00,,,0.00,HomebrewedOnLinux,2013-06-23 16:50:00,
2013-06-23 13:00:00,78.6,74.9,29.94,WSW,247,0.0,2.0,88,0.00,,,0.00,HomebrewedOnLinux,2013-06-23 17:00:00,
2013-06-23 13:05:00,78.3,74.8,29.94,West,273,2.0,3.0,89,0.00,,,0.00,HomebrewedOnLinux,2013-06-23 17:05:00,
2013-06-23 13:10:00,77.7,74.5,29.94,WNW,301,2.0,4.0,90,0.00,,,0.00,HomebrewedOnLinux,2013-06-23 17:10:00,
2013-06-23 13:15:00,77.2,73.7,29.94,WNW,286,3.0,6.0,89,0.00,,,0.00,HomebrewedOnLinux,2013-06-23 17:15:00,
2013-06-23 13:20:00,76.5,73.3,29.94,West,268,2.0,4.0,90,0.04,,,0.04,HomebrewedOnLinux,2013-06-23 17:20:00,
2013-06-23 13:25:00,75.6,72.4,29.94,West,281,2.0,5.0,90,0.09,,,0.09,HomebrewedOnLinux,2013-06-23 17:25:00,
2013-06-23 13:30:00,74.8,72.0,29.94,West,273,1.0,2.0,91,0.09,,,0.09,HomebrewedOnLinux,2013-06-23 17:30:00,
2013-06-23 13:35:00,74.3,71.8,29.94,NNW,331,0.0,0.0,92,0.09,,,0.09,HomebrewedOnLinux,2013-06-23 17:35:00,
2013-06-23 13:40:00,73.9,71.7,29.94,WNW,293,0.0,0.0,93,0.09,,,0.09,HomebrewedOnLinux,2013-06-23 17:40:00,
2013-06-23 13:50:00,73.6,71.9,29.94,NNE,22,0.0,0.0,95,0.09,,,0.09,HomebrewedOnLinux,2013-06-23 17:50:00,
2013-06-23 13:55:00,73.6,72.1,29.94,NNE,22,0.0,0.0,95,0.09,,,0.09,HomebrewedOnLinux,2013-06-23 17:55:00,
2013-06-23 14:00:00,73.8,72.5,29.94,NNE,15,0.0,0.0,96,0.09,,,0.09,HomebrewedOnLinux,2013-06-23 18:00:00,
2013-06-23 14:05:00,73.9,73.0,29.94,North,351,0.0,0.0,97,0.09,,,0.09,HomebrewedOnLinux,2013-06-23 18:05:00,
2013-06-23 14:10:00,74.3,73.4,29.94,NNW,339,0.0,0.0,97,0.09,,,0.09,HomebrewedOnLinux,2013-06-23 18:10:00,
2013-06-23 14:20:00,74.5,73.8,29.94,NNE,22,0.0,0.0,98,0.05,,,0.09,HomebrewedOnLinux,2013-06-23 18:20:00,
2013-06-23 14:25:00,74.8,74.2,29.91,NNE,22,0.0,0.0,98,0.00,,,0.09,HomebrewedOnLinux,2013-06-23 18:25:00,
2013-06-23 14:30:00,75.2,74.6,29.91,North,358,0.0,0.0,98,0.00,,,0.09,HomebrewedOnLinux,2013-06-23 18:30:00,
2013-06-23 14:35:00,75.4,74.8,29.91,NW,315,0.0,0.0,98,0.00,,,0.09,HomebrewedOnLinux,2013-06-23 18:35:00,
2013-06-23 14:45:00,75.7,75.1,29.91,NNW,340,0.0,0.0,98,0.00,,,0.09,HomebrewedOnLinux,2013-06-23 18:45:00,
2013-06-23 14:50:00,76.1,75.5,29.91,North,10,0.0,0.0,98,0.00,,,0.09,HomebrewedOnLinux,2013-06-23 18:50:00,
2013-06-23 14:55:00,76.3,75.7,29.91,NNE,22,0.0,0.0,98,0.00,,,0.09,HomebrewedOnLinux,2013-06-23 18:55:00,
2013-06-23 15:00:00,76.8,76.2,29.91,NNE,22,0.0,0.0,98,0.00,,,0.09,HomebrewedOnLinux,2013-06-23 19:00:00,
2013-06-23 15:05:00,77.2,76.6,29.91,NNE,33,0.0,2.0,98,0.00,,,0.09,HomebrewedOnLinux,2013-06-23 19:05:00,
2013-06-23 15:10:00,77.5,76.9,29.91,ENE,66,0.0,1.0,98,0.00,,,0.09,HomebrewedOnLinux,2013-06-23 19:10:00,
2013-06-23 15:15:00,77.5,76.9,29.91,WNW,292,0.0,0.0,98,0.00,,,0.09,HomebrewedOnLinux,2013-06-23 19:15:00,
2013-06-23 15:20:00,77.4,76.4,29.91,North,0,0.0,0.0,97,0.00,,,0.09,HomebrewedOnLinux,2013-06-23 19:20:00,
2013-06-23 15:25:00,77.4,76.4,29.91,North,0,0.0,0.0,97,0.00,,,0.09,HomebrewedOnLinux,2013-06-23 19:25:00,
2013-06-23 15:35:00,77.4,76.7,29.91,North,0,0.0,0.0,98,0.00,,,0.09,HomebrewedOnLinux,2013-06-23 19:35:00,
2013-06-23 15:40:00,77.5,76.9,29.91,North,0,0.0,0.0,98,0.00,,,0.09,HomebrewedOnLinux,2013-06-23 19:40:00,
2013-06-23 15:50:00,77.5,76.9,29.91,North,0,0.0,0.0,98,0.00,,,0.09,HomebrewedOnLinux,2013-06-23 19:50:00,
2013-06-23 16:00:00,77.5,76.9,29.91,North,0,0.0,0.0,98,0.00,,,0.09,HomebrewedOnLinux,2013-06-23 20:00:00,
2013-06-23 16:10:00,77.7,77.1,29.91,North,0,0.0,0.0,98,0.00,,,0.09,HomebrewedOnLinux,2013-06-23 20:10:00,
2013-06-23 16:15:00,78.3,77.6,29.91,North,7,0.0,1.0,98,0.00,,,0.09,HomebrewedOnLinux,2013-06-23 20:15:00,
2013-06-23 16:20:00,78.6,78.0,29.91,ESE,117,1.0,2.0,98,0.00,,,0.09,HomebrewedOnLinux,2013-06-23 20:20:00,
2013-06-23 16:25:00,78.8,77.6,29.88,ESE,102,2.0,3.0,96,0.00,,,0.09,HomebrewedOnLinux,2013-06-23 20:25:00,
2013-06-23 16:30:00,79.0,77.4,29.88,SSE,163,2.0,3.0,95,0.00,,,0.09,HomebrewedOnLinux,2013-06-23 20:30:00,
2013-06-23 16:35:00,79.0,77.5,29.88,NW,315,2.0,3.0,95,0.00,,,0.09,HomebrewedOnLinux,2013-06-23 20:35:00,
2013-06-23 16:45:00,78.8,76.9,29.88,NNW,338,0.0,0.0,94,0.00,,,0.09,HomebrewedOnLinux,2013-06-23 20:45:00,
2013-06-23 16:50:00,78.8,76.9,29.88,NW,313,1.0,2.0,94,0.00,,,0.09,HomebrewedOnLinux,2013-06-23 20:50:00,
2013-06-23 16:55:00,79.2,77.0,29.88,WSW,252,1.0,3.0,93,0.00,,,0.09,HomebrewedOnLinux,2013-06-23 20:55:00,
2013-06-23 17:00:00,79.2,76.6,29.88,West,267,1.0,3.0,92,0.00,,,0.09,HomebrewedOnLinux,2013-06-23 21:00:00,
2013-06-23 17:05:00,79.2,76.8,29.88,West,264,2.0,3.0,92,0.00,,,0.09,HomebrewedOnLinux,2013-06-23 21:05:00,
2013-06-23 17:10:00,79.2,76.3,29.88,WNW,287,1.0,3.0,91,0.00,,,0.09,HomebrewedOnLinux,2013-06-23 21:10:00,
2013-06-23 17:15:00,79.0,75.8,29.88,NNW,347,0.0,2.0,90,0.00,,,0.09,HomebrewedOnLinux,2013-06-23 21:15:00,
2013-06-23 17:20:00,79.0,75.8,29.88,NNW,331,1.0,3.0,90,0.00,,,0.09,HomebrewedOnLinux,2013-06-23 21:20:00,
2013-06-23 17:30:00,79.2,75.3,29.88,West,269,1.0,2.0,88,0.00,,,0.09,HomebrewedOnLinux,2013-06-23 21:30:00,
2013-06-23 17:35:00,79.2,75.4,29.88,NW,319,1.0,2.0,88,0.00,,,0.09,HomebrewedOnLinux,2013-06-23 21:35:00,
2013-06-23 17:40:00,78.8,75.2,29.88,West,270,0.0,1.0,89,0.00,,,0.09,HomebrewedOnLinux,2013-06-23 21:40:00,
2013-06-23 17:45:00,78.4,75.3,29.88,NNW,341,0.0,0.0,90,0.00,,,0.09,HomebrewedOnLinux,2013-06-23 21:45:00,
2013-06-23 17:50:00,78.4,75.6,29.88,North,350,0.0,1.0,91,0.00,,,0.09,HomebrewedOnLinux,2013-06-23 21:50:00,
2013-06-23 17:55:00,78.8,75.6,29.88,North,349,1.0,2.0,90,0.00,,,0.09,HomebrewedOnLinux,2013-06-23 21:55:00,
2013-06-23 18:00:00,79.3,75.9,29.88,WSW,250,1.0,3.0,89,0.00,,,0.09,HomebrewedOnLinux,2013-06-23 22:00:00,
2013-06-23 18:05:00,79.7,76.1,29.88,WSW,244,1.0,3.0,89,0.00,,,0.09,HomebrewedOnLinux,2013-06-23 22:05:00,
2013-06-23 18:15:00,79.2,75.6,29.88,WNW,291,0.0,1.0,89,0.00,,,0.09,HomebrewedOnLinux,2013-06-23 22:15:00,
2013-06-23 18:20:00,79.0,75.6,29.88,WNW,293,0.0,0.0,90,0.00,,,0.09,HomebrewedOnLinux,2013-06-23 22:20:00,
2013-06-23 18:30:00,79.0,75.8,29.88,ESE,119,2.0,3.0,90,0.00,,,0.09,HomebrewedOnLinux,2013-06-23 22:30:00,
2013-06-23 18:35:00,78.8,75.5,29.88,SE,140,1.0,3.0,90,0.00,,,0.09,HomebrewedOnLinux,2013-06-23 22:35:00,
2013-06-23 18:40:00,78.6,75.4,29.88,WSW,245,1.0,3.0,90,0.00,,,0.09,HomebrewedOnLinux,2013-06-23 22:40:00,
2013-06-23 18:45:00,78.6,75.4,29.88,ESE,121,1.0,4.0,90,0.00,,,0.09,HomebrewedOnLinux,2013-06-23 22:45:00,
2013-06-23 18:50:00,78.6,75.7,29.88,SE,129,1.0,2.0,91,0.00,,,0.09,HomebrewedOnLinux,2013-06-23 22:50:00,
2013-06-23 18:55:00,78.4,75.8,29.88,SE,133,0.0,0.0,92,0.00,,,0.09,HomebrewedOnLinux,2013-06-23 22:55:00,
2013-06-23 19:05:00,78.1,75.9,29.88,West,270,1.0,2.0,93,0.00,,,0.09,HomebrewedOnLinux,2013-06-23 23:05:00,
2013-06-23 19:15:00,78.1,76.2,29.88,ESE,115,0.0,1.0,94,0.00,,,0.09,HomebrewedOnLinux,2013-06-23 23:15:00,
2013-06-23 19:20:00,78.1,76.2,29.88,SW,224,1.0,1.0,94,0.00,,,0.09,HomebrewedOnLinux,2013-06-23 23:20:00,
2013-06-23 19:25:00,77.9,76.2,29.85,West,269,0.0,2.0,95,0.00,,,0.09,HomebrewedOnLinux,2013-06-23 23:25:00,
2013-06-23 19:30:00,77.9,76.3,29.85,West,270,0.0,0.0,95,0.00,,,0.09,HomebrewedOnLinux,2013-06-23 23:30:00,
2013-06-23 19:40:00,77.7,76.2,29.88,West,270,0.0,0.0,95,0.00,,,0.09,HomebrewedOnLinux,2013-06-23 23:40:00,
2013-06-23 19:45:00,77.7,76.2,29.88,South,190,1.0,2.0,95,0.00,,,0.09,HomebrewedOnLinux,2013-06-23 23:45:00,
2013-06-23 19:50:00,77.7,76.2,29.88,SSE,158,0.0,2.0,95,0.00,,,0.09,HomebrewedOnLinux,2013-06-23 23:50:00,
2013-06-23 19:55:00,77.7,76.5,29.91,SSE,158,0.0,0.0,96,0.00,,,0.09,HomebrewedOnLinux,2013-06-23 23:55:00,
2013-06-23 20:05:00,77.5,76.3,29.91,SSW,205,0.0,0.0,96,0.00,,,0.09,HomebrewedOnLinux,2013-06-24 00:05:00,
2013-06-23 20:15:00,77.5,76.3,29.91,West,270,0.0,0.0,96,0.00,,,0.09,HomebrewedOnLinux,2013-06-24 00:15:00,
2013-06-23 20:20:00,77.4,76.1,29.91,West,270,0.0,0.0,96,0.00,,,0.09,HomebrewedOnLinux,2013-06-24 00:20:00,
2013-06-23 20:25:00,77.4,76.4,29.91,West,270,0.0,0.0,97,0.00,,,0.09,HomebrewedOnLinux,2013-06-24 00:25:00,
2013-06-23 20:30:00,77.4,76.4,29.91,West,270,0.0,0.0,97,0.00,,,0.09,HomebrewedOnLinux,2013-06-24 00:30:00,
2013-06-23 20:40:00,77.2,76.3,29.91,WSW,240,0.0,0.0,97,0.00,,,0.09,HomebrewedOnLinux,2013-06-24 00:40:00,
2013-06-23 20:50:00,77.2,76.3,29.91,West,270,0.0,0.0,97,0.00,,,0.09,HomebrewedOnLinux,2013-06-24 00:50:00,
2013-06-23 21:00:00,77.0,76.2,29.91,West,270,0.0,0.0,97,0.00,,,0.09,HomebrewedOnLinux,2013-06-24 01:00:00,
2013-06-23 21:05:00,76.8,76.2,29.91,West,277,0.0,0.0,98,0.00,,,0.09,HomebrewedOnLinux,2013-06-24 01:05:00,
2013-06-23 21:10:00,76.8,76.2,29.91,WNW,293,0.0,0.0,98,0.00,,,0.09,HomebrewedOnLinux,2013-06-24 01:10:00,
2013-06-23 21:15:00,76.6,76.0,29.91,WSW,254,0.0,0.0,98,0.00,,,0.09,HomebrewedOnLinux,2013-06-24 01:15:00,
2013-06-23 21:25:00,76.6,76.0,29.91,WSW,247,0.0,0.0,98,0.00,,,0.09,HomebrewedOnLinux,2013-06-24 01:25:00,
2013-06-23 21:30:00,76.5,75.9,29.91,WSW,247,0.0,0.0,98,0.00,,,0.09,HomebrewedOnLinux,2013-06-24 01:30:00,
2013-06-23 21:35:00,76.5,75.9,29.91,WSW,247,0.0,0.0,98,0.00,,,0.09,HomebrewedOnLinux,2013-06-24 01:35:00,
2013-06-23 21:40:00,76.5,75.9,29.91,WSW,247,0.0,0.0,98,0.00,,,0.09,HomebrewedOnLinux,2013-06-24 01:40:00,
2013-06-23 21:50:00,76.3,75.7,29.91,WSW,247,0.0,0.0,98,0.00,,,0.09,HomebrewedOnLinux,2013-06-24 01:50:00,
2013-06-23 22:00:00,76.1,75.5,29.88,WSW,247,0.0,0.0,98,0.00,,,0.09,HomebrewedOnLinux,2013-06-24 02:00:00,
2013-06-23 22:05:00,76.1,75.5,29.88,WSW,247,0.0,0.0,98,0.00,,,0.09,HomebrewedOnLinux,2013-06-24 02:05:00,
2013-06-23 22:10:00,76.1,75.5,29.91,WSW,247,0.0,0.0,98,0.00,,,0.09,HomebrewedOnLinux,2013-06-24 02:10:00,
2013-06-23 22:15:00,75.9,75.3,29.91,WSW,247,0.0,0.0,98,0.00,,,0.09,HomebrewedOnLinux,2013-06-24 02:15:00,
2013-06-23 22:20:00,75.9,75.3,29.91,West,259,0.0,0.0,98,0.00,,,0.09,HomebrewedOnLinux,2013-06-24 02:20:00,
2013-06-23 22:25:00,75.9,75.3,29.91,West,270,0.0,0.0,98,0.00,,,0.09,HomebrewedOnLinux,2013-06-24 02:25:00,
2013-06-23 22:30:00,75.7,75.1,29.91,West,270,0.0,0.0,98,0.00,,,0.09,HomebrewedOnLinux,2013-06-24 02:30:00,
2013-06-23 22:35:00,75.7,75.1,29.91,West,270,0.0,0.0,98,0.00,,,0.09,HomebrewedOnLinux,2013-06-24 02:35:00,
2013-06-23 22:40:00,75.7,75.1,29.91,West,270,0.0,0.0,98,0.00,,,0.09,HomebrewedOnLinux,2013-06-24 02:40:00,
2013-06-23 22:45:00,75.6,75.0,29.91,West,270,0.0,0.0,98,0.00,,,0.09,HomebrewedOnLinux,2013-06-24 02:45:00,
2013-06-23 22:50:00,75.6,75.0,29.91,West,270,0.0,0.0,98,0.00,,,0.09,HomebrewedOnLinux,2013-06-24 02:50:00,
2013-06-23 22:55:00,75.6,75.0,29.91,West,270,0.0,0.0,98,0.00,,,0.09,HomebrewedOnLinux,2013-06-24 02:55:00,
2013-06-23 23:00:00,75.4,74.8,29.91,West,270,0.0,0.0,98,0.00,,,0.09,HomebrewedOnLinux,2013-06-24 03:00:00,
2013-06-23 23:10:00,75.4,74.8,29.94,ENE,65,0.0,0.0,98,0.00,,,0.09,HomebrewedOnLinux,2013-06-24 03:10:00,
2013-06-23 23:15:00,75.2,74.6,29.94,WNW,293,0.0,0.0,98,0.00,,,0.09,HomebrewedOnLinux,2013-06-24 03:15:00,
2013-06-23 23:20:00,75.2,74.6,29.94,WNW,293,0.0,0.0,98,0.00,,,0.09,HomebrewedOnLinux,2013-06-24 03:20:00,
2013-06-23 23:25:00,75.2,74.6,29.94,WNW,283,0.0,2.0,98,0.00,,,0.09,HomebrewedOnLinux,2013-06-24 03:25:00,
2013-06-23 23:30:00,75.0,74.4,29.94,West,266,1.0,2.0,98,0.00,,,0.09,HomebrewedOnLinux,2013-06-24 03:30:00,
2013-06-23 23:35:00,75.0,74.4,29.94,West,270,1.0,2.0,98,0.00,,,0.09,HomebrewedOnLinux,2013-06-24 03:35:00,
2013-06-23 23:45:00,74.8,74.2,29.91,West,270,0.0,1.0,98,0.00,,,0.09,HomebrewedOnLinux,2013-06-24 03:45:00,
2013-06-23 23:50:00,74.8,74.2,29.91,West,270,0.0,0.0,98,0.00,,,0.09,HomebrewedOnLinux,2013-06-24 03:50:00,
2013-06-23 23:55:00,74.7,74.1,29.94,West,276,1.0,2.0,98,0.00,,,0.09,HomebrewedOnLinux,2013-06-24 03:55:00,